Tracking 23726 objects as of 22-Sep-2021
HD Live streaming from Space Station
objects crossing your sky now

GEOS 2

Track GEOS 2 now!
GEOS 2 is classified as:


NORAD ID: 10981
Int'l Code: 1978-071A
Perigee: 36,036.0 km
Apogee: 36,054.3 km
Inclination: 9.8 °
Period: 1,449.0 minutes
Semi major axis: 42416 km
RCS: 2.0304 m2 (large)
Launch date: July 14, 1978
Source: European Space Agency (ESA)
Launch site: AIR FORCE EASTERN TEST RANGE (AFETR)
aabbcc
Your satellite tracking list
Your tracking list is empty




NASA's NSSDC Master Catalog

Two Line Element Set (TLE):
1 10981U 78071A   21265.31167351 -.00000217  00000-0  00000-0 0  9996
2 10981   9.7726 304.8489 0002161 321.9679 197.8978  0.99381695156815
Source of the keplerian elements: AFSPC